{"data":{"norad_id":37214,"epoch":"2026-05-25T04:25:07.626720Z","epoch_age_seconds":52420,"freshness":"FRESH","line1":"1 37214U 10059A   26145.18411605  .00000015  00000+0  31079-4 0  9995","line2":"2 37214  98.9636 191.0996 0021043 251.2401 197.2720 14.14836155804176","mean_motion":14.14836155,"eccentricity":0.0021043,"inclination_deg":98.9636,"raan_deg":191.0996,"arg_perigee_deg":251.2401,"mean_anomaly_deg":197.272,"bstar":3.1079e-5,"rev_number":80417,"period_min":101.77856954751,"perigee_km":827.67443297601,"apogee_km":858.06476134081,"semimajor_km":7221.0065971584,"source":"CELESTRAK","updated_at":"2026-05-25T13:38:11.912637Z"}}